Vorticity
4 2 2 2 2 3 3 3 4 5 6 5 5 5 5 5 4 4 4 4 5 6 6 9 11 11 9 8 5 4 4 3 3 3 6 4 0 3 2 2 2 4 4
3 3 2 3 3 2 2 3 4 5 5 6 6 5 4 4 4 4 4 6 9 9 10 11 11 10 7 5 4 3 3 4 5 6 4 3 -0 -0 2 -0 -2 0 2
5 4 3 2 3 2 2 3 4 6 6 5 5 5 5 4 5 7 9 10 11 12 12 12 11 6 5 3 3 4 5 4 4 2 3 1 1 -0 2 4 3 1 1
5 3 4 4 3 3 3 4 6 6 6 5 5 5 6 8 8 8 9 10 11 11 10 10 7 4 4 4 4 5 4 2 2 6 9 6 4 4 1 -0 -1 3 4
4 4 3 4 3 4 4 6 6 6 5 5 6 7 6 7 6 7 7 10 10 9 7 6 4 3 4 2 2 3 4 6 8 8 5 2 2 0 3 1 1 1 -2
5 5 4 5 5 4 5 5 5 6 6 7 6 6 5 6 6 7 8 8 7 6 5 5 3 3 3 1 2 5 7 9 8 7 4 4 2 1 2 2 2 5 5
5 6 6 4 4 5 5 4 6 8 6 5 5 5 5 6 7 7 7 6 5 4 4 4 5 6 6 9 11 10 9 8 6 5 4 3 4 5 5 6 4 6 5
8 7 5 5 6 5 4 7 8 6 6 5 5 6 7 8 9 9 8 8 8 8 9 8 8 7 6 5 5 5 4 5 5 4 4 5 4 4 6 7 9 8 8
7 5 7 6 6 7 8 7 6 6 6 5 5 6 8 8 7 8 8 8 8 7 6 5 5 5 5 6 6 6 7 7 6 6 5 6 8 9 10 10 10 12 12
7 9 7 7 7 6 7 6 6 6 6 5 5 5 5 7 8 9 9 7 6 6 7 7 7 7 6 5 5 5 5 6 6 8 9 10 10 10 12 12 11 8 8
8 7 6 5 6 6 5 6 7 6 5 4 4 7 7 8 8 6 7 7 6 6 6 6 6 6 6 6 5 6 7 8 9 10 9 9 10 8 6 6 6 5 8
5 5 6 7 5 6 7 6 6 5 4 5 7 8 8 7 7 7 5 6 6 5 6 6 6 5 6 8 10 10 10 9 10 9 8 7 9 11 5 5 9 19 32
5 5 5 6 6 7 6 5 5 5 6 8 8 7 6 6 5 6 7 7 7 6 7 7 8 9 10 11 9 10 11 8 9 8 11 6 4 9 14 30 41 39 30
4 5 5 6 5 5 5 6 6 6 7 7 6 5 7 7 8 6 6 7 7 6 7 10 11 10 10 10 9 7 7 7 8 6 7 10 23 37 39 31 29 34 25
5 6 5 5 6 6 5 5 6 6 6 7 7 8 7 6 6 7 5 5 7 9 11 11 10 9 7 6 5 6 6 5 8 10 28 38 33 30 37 27 7 8 16
4 5 6 5 4 5 5 6 6 8 8 6 7 5 5 7 4 6 5 7 12 12 11 9 6 5 4 4 5 6 7 9 27 39 33 33 37 13 7 14 12 15 5
6 5 4 4 5 5 6 8 9 5 6 5 5 7 6 7 6 7 11 13 10 9 7 5 4 4 6 7 8 11 22 37 33 27 28 14 17 18 13 10 3 8 11
5 4 4 4 5 7 9 7 5 6 6 8 10 9 8 7 9 13 12 10 8 5 4 4 5 7 8 9 18 32 35 24 33 13 14 23 21 4 9 5 4 17 10
3 3 4 6 7 8 5 4 1 5 8 10 9 9 8 11 12 10 9 6 4 4 4 6 7 6 14 26 36 28 26 22 10 11 10 18 2 10 11 4 13 8 3
5 2 7 6 6 8 5 3 9 9 11 11 8 11 12 12 9 7 4 3 6 5 6 4 6 18 31 34 18 34 14 5 11 9 20 13 14 14 5 8 13 5 18
5 8 6 8 8 3 8 10 10 11 10 10 11 10 8 8 5 4 5 5 4 5 4 12 22 36 36 21 30 4 9 11 14 14 17 10 13 14 6 13 9 -3 33
8 12 8 2 3 7 12 11 11 11 12 10 8 9 6 4 6 6 4 4 3 7 16 24 37 27 21 24 5 8 14 12 14 17 13 11 17 13 11 21 10 10 34
4 -2 -4 1 11 16 13 12 12 12 10 9 7 4 4 7 5 3 3 5 11 20 30 35 22 23 19 4 8 14 12 18 17 12 20 19 19 10 19 21 5 32 31
-9 6 13 17 18 15 12 12 13 10 6 4 4 6 6 3 2 3 6 14 26 35 29 18 23 19 4 6 16 11 18 16 19 17 18 11 5 6 13 14 -9 31 29
15 20 17 15 12 13 13 11 6 4 4 5 6 5 3 3 4 8 18 34 38 18 14 22 23 5 6 16 11 13 20 19 11 15 2 20 22 17 12 25 3 20 32
19 14 11 13 13 11 6 4 3 5 6 6 4 3 3 4 12 25 40 28 13 10 28 20 5 6 14 15 11 15 22 11 -2 15 13 7 14 19 14 16 18 -2 34
Height
5806 5809 5812 5813 5814 5816 5817 5817 5817 5816 5815 5815 5814 5813 5811 5809 5807 5805 5803 5801 5799 5796 5793 5791 5788 5786 5785 5784 5783 5781 5780 5779 5777 5775 5773 5771 5769 5767 5766 5763 5761 5759 5759
5801 5803 5805 5807 5809 5810 5811 5811 5810 5810 5810 5809 5807 5806 5804 5802 5799 5797 5795 5793 5790 5787 5785 5782 5780 5778 5777 5776 5775 5773 5771 5768 5767 5766 5764 5762 5760 5754 5753 5751 5748 5746 5744
5795 5797 5799 5801 5803 5804 5805 5805 5804 5804 5803 5802 5800 5798 5796 5794 5792 5789 5786 5783 5780 5778 5776 5774 5772 5771 5769 5767 5765 5763 5761 5759 5756 5753 5749 5748 5746 5744 5742 5738 5735 5733 5731
5788 5790 5793 5794 5795 5797 5797 5797 5797 5797 5796 5794 5792 5790 5788 5785 5783 5780 5777 5774 5771 5769 5767 5765 5764 5762 5760 5757 5755 5752 5749 5746 5744 5742 5738 5734 5730 5727 5728 5726 5723 5720 5717
5781 5783 5785 5787 5788 5789 5790 5790 5789 5789 5787 5786 5784 5781 5779 5777 5774 5771 5769 5766 5764 5761 5759 5756 5754 5752 5749 5746 5743 5740 5737 5733 5730 5726 5723 5719 5715 5712 5709 5709 5706 5703 5700
5774 5776 5778 5780 5780 5781 5782 5781 5781 5780 5778 5777 5775 5773 5771 5768 5765 5762 5760 5757 5754 5752 5749 5746 5743 5740 5736 5733 5730 5726 5723 5718 5714 5710 5706 5702 5697 5693 5690 5688 5686 5683 5680
5766 5768 5770 5771 5772 5773 5773 5772 5772 5771 5769 5768 5766 5764 5761 5758 5755 5752 5749 5746 5743 5740 5737 5733 5729 5726 5722 5718 5714 5710 5706 5702 5698 5693 5688 5683 5677 5671 5666 5662 5661 5659 5657
5758 5760 5761 5763 5763 5763 5764 5764 5763 5762 5760 5759 5757 5754 5751 5748 5744 5741 5738 5734 5731 5727 5723 5719 5715 5711 5707 5703 5698 5694 5689 5684 5678 5673 5667 5661 5655 5648 5641 5635 5631 5630 5629
5750 5752 5753 5754 5754 5755 5755 5754 5753 5753 5751 5749 5746 5743 5740 5736 5733 5730 5727 5723 5719 5714 5710 5706 5701 5696 5691 5687 5682 5677 5671 5664 5658 5652 5645 5638 5631 5624 5616 5610 5603 5596 5599
5741 5743 5744 5745 5745 5745 5745 5745 5745 5743 5740 5738 5735 5732 5729 5725 5722 5718 5715 5711 5706 5701 5696 5691 5686 5681 5675 5669 5664 5658 5652 5645 5638 5630 5623 5614 5606 5599 5591 5583 5575 5566 5559
5733 5734 5735 5736 5736 5736 5736 5735 5734 5732 5729 5727 5724 5721 5717 5713 5710 5706 5702 5697 5692 5687 5681 5676 5670 5664 5658 5651 5644 5637 5630 5623 5615 5607 5599 5590 5581 5573 5564 5553 5545 5535 5522
5723 5725 5726 5726 5726 5726 5726 5724 5723 5721 5718 5715 5712 5709 5705 5701 5697 5693 5689 5683 5677 5671 5665 5658 5652 5645 5638 5631 5623 5616 5608 5601 5592 5584 5574 5565 5554 5546 5533 5521 5511 5498 5489
5714 5716 5716 5717 5717 5716 5715 5713 5711 5709 5706 5703 5700 5696 5692 5689 5685 5680 5674 5667 5661 5654 5647 5640 5632 5625 5617 5609 5601 5594 5586 5578 5569 5559 5549 5539 5524 5514 5501 5488 5476 5467 5458
5704 5705 5706 5706 5706 5705 5703 5701 5699 5696 5694 5691 5687 5683 5679 5675 5670 5664 5657 5650 5644 5637 5629 5621 5613 5605 5597 5588 5580 5572 5564 5556 5546 5533 5519 5507 5493 5479 5469 5459 5452 5445 5439
5695 5695 5696 5695 5695 5693 5692 5689 5687 5684 5682 5678 5674 5670 5665 5660 5654 5648 5641 5634 5627 5619 5611 5603 5595 5586 5577 5567 5559 5551 5541 5530 5519 5506 5490 5477 5466 5456 5447 5440 5438 5430 5423
5684 5684 5684 5683 5683 5681 5679 5677 5675 5671 5668 5665 5660 5655 5650 5644 5638 5631 5624 5618 5610 5602 5594 5586 5576 5568 5558 5547 5536 5523 5515 5501 5486 5477 5468 5456 5447 5439 5433 5426 5421 5415 5407
5673 5672 5672 5672 5671 5668 5666 5664 5661 5658 5655 5650 5645 5640 5634 5628 5621 5615 5608 5601 5593 5585 5576 5567 5559 5550 5539 5525 5510 5496 5486 5475 5465 5456 5448 5442 5432 5424 5418 5413 5407 5400 5392
5660 5660 5660 5658 5657 5655 5653 5650 5648 5645 5641 5636 5630 5624 5617 5611 5604 5598 5591 5583 5575 5566 5558 5550 5540 5530 5517 5501 5487 5474 5463 5456 5449 5440 5432 5425 5419 5411 5403 5397 5391 5383 5374
5648 5647 5647 5646 5644 5643 5640 5638 5635 5631 5626 5620 5613 5606 5600 5594 5588 5581 5574 5566 5558 5550 5542 5531 5520 5508 5495 5479 5465 5454 5447 5440 5435 5427 5418 5410 5405 5397 5389 5381 5372 5364 5356
5636 5635 5635 5634 5632 5630 5628 5624 5620 5615 5610 5603 5597 5590 5584 5578 5572 5564 5557 5550 5541 5533 5523 5512 5499 5486 5473 5460 5449 5439 5433 5429 5422 5414 5405 5397 5390 5382 5375 5366 5357 5346 5337
5623 5623 5622 5621 5620 5617 5613 5608 5604 5599 5593 5587 5581 5575 5569 5562 5555 5549 5541 5533 5525 5516 5505 5493 5479 5465 5453 5445 5435 5428 5420 5412 5406 5400 5393 5385 5376 5369 5361 5352 5343 5331 5320
5610 5609 5609 5607 5605 5601 5597 5593 5588 5583 5577 5572 5566 5560 5553 5547 5540 5533 5524 5516 5506 5496 5483 5471 5460 5449 5440 5432 5426 5418 5409 5400 5393 5387 5381 5374 5365 5358 5349 5340 5330 5318 5305
5598 5597 5595 5592 5589 5586 5582 5578 5573 5568 5563 5557 5551 5545 5539 5531 5523 5516 5508 5498 5485 5473 5463 5453 5445 5438 5430 5423 5416 5408 5399 5391 5384 5377 5370 5363 5355 5347 5338 5328 5318 5305 5294
5583 5581 5579 5577 5574 5570 5567 5563 5559 5554 5549 5544 5537 5530 5523 5515 5507 5499 5488 5476 5464 5455 5446 5440 5434 5427 5421 5413 5407 5399 5391 5384 5377 5369 5361 5353 5345 5336 5326 5318 5309 5296 5285
5568 5566 5564 5562 5560 5557 5553 5549 5545 5540 5535 5529 5521 5514 5507 5499 5491 5481 5469 5457 5446 5439 5435 5429 5423 5418 5412 5405 5397 5390 5383 5377 5370 5362 5355 5346 5337 5328 5320 5310 5300 5289 5279
5554 5553 5551 5549 5546 5543 5539 5536 5531 5525 5519 5512 5505 5499 5491 5482 5472 5462 5453 5443 5434 5429 5423 5417 5413 5408 5401 5396 5389 5383 5376 5370 5363 5355 5347 5339 5329 5321 5312 5303 5294 5284 5273